This is the latest recevied weather packets stored in our database for station/object KQ7A. If no packets are shown the sender has not sent any weather packets the latest 10 day(s).
| Time | Temp. | Humidity | Pressure | Rain* | Wind** | Luminosity | Snow |
|---|---|---|---|---|---|---|---|
| 1788024612 | 22.78° C | 57% | 1020.5 hPa | 0 mm | - | 786 W/m² | - |
| 1788024307 | 22.22° C | 58% | 1020 hPa | 0 mm | - | 729 W/m² | - |
| 1788024002 | 22.22° C | 58% | 1020.3 hPa | 0 mm | - | 713 W/m² | - |
| 1788023697 | 22.22° C | 60% | 1020.1 hPa | 0 mm | - | 705 W/m² | - |
| 1788023388 | 21.67° C | 58% | 1020.4 hPa | 0 mm | - | 683 W/m² | - |
| 1788023086 | 21.11° C | 59% | 1020.5 hPa | 0 mm | - | 677 W/m² | - |
| 1788022785 | 21.67° C | 62% | 1020.4 hPa | 0 mm | - | 652 W/m² | - |
| 1788022484 | 21.67° C | 57% | 1020.3 hPa | 0 mm | - | 626 W/m² | - |
| 1788022178 | 21.67° C | 57% | 1020.3 hPa | 0 mm | - | 601 W/m² | - |
| 1788021877 | 21.11° C | 61% | 1020.3 hPa | 0 mm | - | 578 W/m² | - |
| 1788021577 | 20.56° C | 69% | 1020.4 hPa | 0 mm | - | 573 W/m² | - |
| 1788021275 | 20.56° C | 66% | 1020.1 hPa | 0 mm | - | 567 W/m² | - |
| 1788020970 | 20° C | 70% | 1020.3 hPa | 0 mm | - | 537 W/m² | - |
| 1788020665 | 20° C | 74% | 1020.3 hPa | 0 mm | - | 464 W/m² | - |
| 1788020361 | 19.44° C | 74% | 1020.4 hPa | 0 mm | - | 423 W/m² | - |
| 1788020057 | 19.44° C | 73% | 1020.5 hPa | 0 mm | - | 401 W/m² | - |
| 1788019752 | 19.44° C | 73% | 1020.4 hPa | 0 mm | - | 380 W/m² | - |
| 1788019451 | 19.44° C | 73% | 1020.4 hPa | 0 mm | - | 354 W/m² | - |
| 1788019149 | 19.44° C | 76% | 1020.4 hPa | 0 mm | - | 330 W/m² | - |
| 1788018844 | 18.89° C | 78% | 1020.5 hPa | 0 mm | - | 319 W/m² | - |
| 1788018539 | 19.44° C | 73% | 1020.7 hPa | 0 mm | - | 318 W/m² | - |
| 1788018237 | 19.44° C | 72% | 1020.6 hPa | 0 mm | - | 302 W/m² | - |
| 1788017934 | 18.89° C | 75% | 1020.6 hPa | 0 mm | - | 280 W/m² | - |
| 1788017642 | 18.33° C | 78% | 1020.4 hPa | 0 mm | - | 106 W/m² | - |
| 1788017326 | 18.33° C | 78% | 1020.7 hPa | 0 mm | - | 96 W/m² | - |
* Rain latest hour (hover to see other rain measurements)
** Current wind speed in m/s (hover to see current wind gust speed)